QPF
0.00 0.00 0.00 0.00 0.00 0.00 0.00 0.00 0.00 0.00 0.00 0.00 0.00 0.00 0.00 0.00 0.00 0.00 0.00 0.00 0.00 0.00 0.00 0.00 0.00 0.00 0.00 0.00 0.00 0.00 0.00 0.00 0.00 0.00 0.00 0.00 0.00 0.00 0.00 0.00 0.00 0.00 0.00 0.00 0.00
0.00 0.00 0.00 0.00 0.00 0.00 0.00 0.00 0.00 0.00 0.00 0.00 0.00 0.00 0.00 0.00 0.00 0.00 0.00 0.00 0.00 0.00 0.00 0.00 0.00 0.00 0.00 0.00 0.00 0.00 0.00 0.00 0.00 0.00 0.00 0.00 0.00 0.00 0.00 0.00 0.00 0.00 0.00 0.00 0.00
0.00 0.00 0.00 0.00 0.00 0.00 0.00 0.00 0.00 0.00 0.00 0.00 0.00 0.00 0.00 0.00 0.00 0.00 0.00 0.00 0.00 0.00 0.00 0.00 0.00 0.00 0.00 0.00 0.00 0.00 0.00 0.00 0.00 0.00 0.00 0.00 0.00 0.00 0.00 0.00 0.00 0.00 0.00 0.00 0.00
0.00 0.00 0.00 0.00 0.00 0.00 0.00 0.00 0.00 0.00 0.00 0.00 0.00 0.00 0.00 0.00 0.00 0.00 0.00 0.00 0.00 0.00 0.00 0.00 0.00 0.00 0.00 0.00 0.00 0.00 0.00 0.00 0.00 0.00 0.00 0.00 0.00 0.00 0.00 0.00 0.00 0.00 0.00 0.00 0.00
0.00 0.00 0.00 0.00 0.00 0.00 0.00 0.00 0.00 0.00 0.00 0.00 0.00 0.00 0.00 0.00 0.00 0.00 0.00 0.00 0.00 0.00 0.00 0.00 0.00 0.00 0.00 0.00 0.00 0.00 0.00 0.00 0.00 0.00 0.00 0.00 0.00 0.00 0.00 0.00 0.00 0.00 0.00 0.00 0.00
0.00 0.00 0.00 0.00 0.00 0.00 0.00 0.00 0.00 0.00 0.00 0.00 0.00 0.00 0.00 0.00 0.00 0.00 0.00 0.00 0.00 0.00 0.00 0.00 0.00 0.00 0.00 0.00 0.00 0.00 0.00 0.00 0.00 0.00 0.00 0.00 0.00 0.00 0.00 0.00 0.00 0.00 0.00 0.00 0.00
0.00 0.00 0.00 0.00 0.00 0.00 0.00 0.00 0.00 0.00 0.00 0.00 0.00 0.00 0.00 0.00 0.00 0.00 0.00 0.00 0.00 0.00 0.00 0.00 0.00 0.00 0.00 0.00 0.00 0.00 0.00 0.00 0.00 0.00 0.00 0.00 0.00 0.00 0.00 0.00 0.00 0.00 0.00 0.00 0.00
0.00 0.00 0.00 0.00 0.00 0.00 0.00 0.00 0.00 0.00 0.00 0.00 0.00 0.00 0.00 0.00 0.00 0.00 0.00 0.00 0.00 0.00 0.00 0.00 0.00 0.00 0.00 0.00 0.00 0.00 0.00 0.00 0.00 0.00 0.00 0.00 0.00 0.00 0.00 0.00 0.00 0.00 0.00 0.00 0.00
0.00 0.00 0.00 0.00 0.00 0.00 0.00 0.00 0.00 0.00 0.00 0.00 0.00 0.00 0.00 0.00 0.00 0.00 0.00 0.00 0.00 0.00 0.00 0.00 0.00 0.00 0.00 0.00 0.00 0.00 0.00 0.00 0.00 0.00 0.00 0.00 0.00 0.00 0.00 0.00 0.00 0.00 0.00 0.00 0.00
0.00 0.00 0.00 0.00 0.00 0.00 0.00 0.00 0.00 0.00 0.00 0.00 0.00 0.00 0.00 0.00 0.00 0.00 0.00 0.00 0.00 0.00 0.00 0.00 0.00 0.00 0.00 0.00 0.00 0.00 0.00 0.00 0.00 0.00 0.00 0.00 0.00 0.00 0.00 0.00 0.00 0.00 0.00 0.00 0.00
0.00 0.00 0.00 0.00 0.00 0.00 0.00 0.00 0.00 0.00 0.00 0.00 0.00 0.00 0.00 0.00 0.00 0.00 0.00 0.00 0.00 0.00 0.00 0.00 0.00 0.00 0.00 0.00 0.00 0.00 0.00 0.00 0.00 0.00 0.00 0.00 0.00 0.00 0.00 0.00 0.00 0.00 0.00 0.00 0.00
0.00 0.00 0.00 0.00 0.00 0.00 0.00 0.00 0.00 0.00 0.00 0.00 0.00 0.00 0.00 0.00 0.00 0.00 0.00 0.00 0.00 0.00 0.00 0.00 0.00 0.00 0.00 0.00 0.00 0.00 0.00 0.00 0.00 0.00 0.00 0.00 0.00 0.00 0.00 0.00 0.00 0.00 0.00 0.00 0.00
0.00 0.00 0.00 0.00 0.00 0.00 0.00 0.00 0.00 0.00 0.00 0.00 0.00 0.00 0.00 0.00 0.00 0.00 0.00 0.00 0.00 0.00 0.00 0.00 0.00 0.00 0.00 0.00 0.00 0.00 0.00 0.00 0.00 0.00 0.00 0.00 0.00 0.00 0.00 0.00 0.00 0.00 0.00 0.00 0.00
0.00 0.00 0.00 0.00 0.00 0.00 0.00 0.00 0.00 0.00 0.00 0.00 0.00 0.00 0.00 0.00 0.00 0.00 0.00 0.00 0.00 0.00 0.00 0.00 0.00 0.00 0.00 0.00 0.00 0.00 0.00 0.00 0.00 0.00 0.00 0.00 0.00 0.00 0.00 0.00 0.00 0.00 0.00 0.00 0.00
0.00 0.00 0.00 0.00 0.00 0.00 0.00 0.00 0.00 0.00 0.00 0.00 0.00 0.00 0.00 0.00 0.00 0.00 0.00 0.00 0.00 0.00 0.00 0.00 0.00 0.00 0.00 0.00 0.00 0.00 0.00 0.00 0.00 0.00 0.00 0.00 0.00 0.00 0.00 0.00 0.00 0.00 0.00 0.00 0.00
0.00 0.00 0.00 0.00 0.00 0.00 0.00 0.00 0.00 0.00 0.00 0.00 0.00 0.00 0.00 0.00 0.00 0.00 0.00 0.00 0.00 0.00 0.00 0.00 0.00 0.00 0.00 0.00 0.00 0.00 0.00 0.00 0.00 0.00 0.00 0.00 0.00 0.00 0.00 0.00 0.00 0.00 0.00 0.00 0.00
0.00 0.00 0.00 0.00 0.00 0.00 0.00 0.00 0.00 0.00 0.00 0.00 0.00 0.00 0.00 0.00 0.00 0.00 0.00 0.00 0.00 0.00 0.00 0.00 0.00 0.00 0.00 0.00 0.00 0.00 0.00 0.00 0.00 0.00 0.00 0.00 0.00 0.00 0.00 0.00 0.00 0.00 0.00 0.00 0.00
0.00 0.00 0.00 0.00 0.00 0.00 0.00 0.00 0.00 0.00 0.00 0.00 0.00 0.00 0.00 0.00 0.00 0.00 0.00 0.00 0.00 0.00 0.00 0.00 0.00 0.00 0.00 0.00 0.00 0.00 0.00 0.00 0.00 0.00 0.00 0.00 0.00 0.00 0.00 0.00 0.00 0.00 0.00 0.00 0.00
0.00 0.00 0.00 0.00 0.00 0.00 0.00 0.00 0.00 0.00 0.00 0.00 0.00 0.00 0.00 0.00 0.00 0.00 0.00 0.00 0.00 0.00 0.00 0.00 0.00 0.00 0.00 0.00 0.00 0.00 0.00 0.00 0.00 0.00 0.00 0.00 0.00 0.00 0.00 0.00 0.00 0.00 0.00 0.00 0.00
0.00 0.00 0.00 0.00 0.00 0.00 0.00 0.00 0.00 0.00 0.00 0.00 0.00 0.00 0.00 0.00 0.00 0.00 0.00 0.00 0.00 0.00 0.00 0.00 0.00 0.00 0.00 0.00 0.00 0.00 0.00 0.00 0.00 0.00 0.00 0.00 0.00 0.00 0.00 0.00 0.00 0.00 0.00 0.00 0.00
0.00 0.00 0.00 0.00 0.00 0.00 0.00 0.00 0.00 0.00 0.00 0.00 0.00 0.00 0.00 0.00 0.00 0.00 0.00 0.00 0.00 0.00 0.00 0.00 0.00 0.00 0.00 0.00 0.00 0.00 0.00 0.00 0.00 0.00 0.00 0.00 0.00 0.00 0.00 0.00 0.00 0.00 0.00 0.00 0.00
0.00 0.00 0.00 0.00 0.00 0.00 0.00 0.00 0.00 0.00 0.00 0.00 0.00 0.00 0.00 0.00 0.00 0.00 0.00 0.00 0.00 0.00 0.00 0.00 0.00 0.00 0.00 0.00 0.00 0.00 0.00 0.00 0.00 0.00 0.00 0.00 0.00 0.00 0.00 0.00 0.00 0.00 0.00 0.00 0.00
0.00 0.00 0.00 0.00 0.00 0.00 0.00 0.00 0.00 0.00 0.00 0.00 0.00 0.00 0.00 0.00 0.00 0.00 0.00 0.00 0.00 0.00 0.00 0.00 0.00 0.00 0.00 0.00 0.00 0.00 0.00 0.00 0.00 0.00 0.00 0.00 0.00 0.00 0.00 0.00 0.00 0.00 0.00 0.00 0.00
0.00 0.00 0.00 0.00 0.00 0.00 0.00 0.00 0.00 0.00 0.00 0.00 0.00 0.00 0.00 0.00 0.00 0.00 0.00 0.00 0.00 0.00 0.00 0.01 0.00 0.00 0.00 0.00 0.00 0.00 0.00 0.00 0.00 0.01 0.00 0.00 0.00 0.00 0.00 0.00 0.00 0.00 0.00 0.00 0.00
0.00 0.00 0.00 0.00 0.00 0.00 0.00 0.00 0.00 0.00 0.00 0.00 0.00 0.00 0.00 0.00 0.00 0.00 0.00 0.00 0.00 0.00 0.00 0.00 0.00 0.00 0.00 0.00 0.00 0.00 0.00 0.00 0.00 0.00 0.00 0.00 0.00 0.00 0.00 0.00 0.00 0.00 0.00 0.00 0.00
0.00 0.00 0.00 0.00 0.00 0.00 0.00 0.00 0.00 0.00 0.00 0.00 0.00 0.00 0.00 0.00 0.00 0.00 0.00 0.00 0.00 0.00 0.00 0.01 0.01 0.00 0.00 0.00 0.00 0.00 0.00 0.00 0.00 0.00 0.00 0.00 0.00 0.00 0.00 0.00 0.00 0.00 0.00 0.00 0.00
0.00 0.00 0.00 0.00 0.00 0.00 0.00 0.00 0.00 0.00 0.00 0.00 0.00 0.00 0.00 0.00 0.00 0.00 0.00 0.00 0.00 0.00 0.00 0.01 0.01 0.01 0.00 0.00 0.00 0.00 0.00 0.00 0.00 0.00 0.00 0.00 0.00 0.00 0.00 0.00 0.00 0.00 0.00 0.00 0.00
MSLP
1020.12 1019.73 1019.36 1019.04 1018.72 1018.42 1018.11 1017.76 1017.38 1017.01 1016.69 1016.38 1016.08 1015.79 1015.52 1015.20 1014.69 1014.24 1013.15 1011.82 1011.87 1011.61 1011.47 1011.16 1010.89 1010.80 1010.70 1010.30 1010.42 1010.12 1009.45 1008.45 1008.38 1008.29 1007.68 1007.67 1007.62 1007.48 1007.20 1007.09 1006.86 1006.56 1006.58 1006.59 1006.28
1020.06 1019.67 1019.25 1018.86 1018.49 1018.20 1017.88 1017.51 1017.15 1016.78 1016.45 1016.14 1015.88 1015.61 1015.33 1014.95 1014.23 1013.01 1011.42 1011.44 1011.52 1011.44 1011.27 1011.03 1010.96 1010.68 1010.48 1010.31 1010.21 1010.00 1008.94 1008.40 1008.34 1007.78 1007.19 1007.30 1007.49 1007.57 1007.44 1007.09 1006.71 1006.46 1006.51 1006.44 1006.19
1019.98 1019.54 1019.10 1018.69 1018.27 1017.86 1017.50 1017.19 1016.87 1016.53 1016.22 1015.97 1015.68 1015.45 1015.19 1014.85 1013.82 1011.31 1010.92 1011.18 1011.31 1011.37 1011.38 1011.25 1011.08 1010.66 1010.33 1010.46 1010.16 1009.98 1009.36 1008.92 1008.27 1008.00 1007.78 1007.17 1007.50 1007.51 1007.53 1006.89 1006.67 1006.47 1006.19 1005.85 1005.81
1019.89 1019.37 1018.89 1018.46 1018.03 1017.59 1017.18 1016.82 1016.55 1016.34 1016.09 1015.87 1015.59 1015.31 1015.00 1014.70 1012.89 1010.95 1010.85 1011.02 1011.18 1011.28 1011.18 1011.06 1010.87 1010.52 1010.29 1010.31 1010.44 1009.97 1009.97 1009.80 1008.72 1008.33 1008.09 1007.73 1007.95 1007.58 1007.62 1007.16 1007.05 1006.59 1006.54 1006.07 1005.66
1019.75 1019.27 1018.75 1018.27 1017.79 1017.35 1016.91 1016.52 1016.24 1016.07 1015.94 1015.83 1015.56 1015.34 1014.89 1013.89 1011.73 1010.86 1010.91 1011.06 1011.27 1011.31 1011.07 1010.86 1010.66 1010.60 1010.27 1010.48 1010.61 1010.09 1010.08 1009.96 1009.61 1008.72 1008.41 1008.30 1007.64 1007.34 1007.34 1007.39 1006.90 1006.51 1006.20 1005.80 1005.48
1019.44 1018.97 1018.55 1018.04 1017.56 1017.10 1016.65 1016.24 1015.97 1015.79 1015.73 1015.63 1015.44 1015.26 1014.76 1012.88 1010.92 1010.99 1011.01 1011.26 1011.18 1011.21 1011.09 1010.95 1010.63 1010.68 1010.60 1010.58 1010.69 1010.58 1010.39 1010.10 1009.77 1009.02 1008.55 1008.30 1007.51 1008.00 1007.05 1006.85 1006.54 1006.39 1005.81 1005.40 1005.13
1019.16 1018.69 1018.26 1017.82 1017.26 1016.75 1016.28 1015.89 1015.57 1015.42 1015.34 1015.31 1015.28 1015.07 1014.26 1011.84 1010.83 1011.06 1011.19 1010.95 1010.97 1010.94 1010.74 1010.84 1010.69 1010.61 1010.73 1010.76 1011.09 1010.91 1010.49 1010.05 1009.69 1009.25 1008.66 1008.49 1007.66 1007.46 1007.51 1007.26 1006.55 1006.58 1005.83 1005.44 1005.05
1018.90 1018.46 1017.94 1017.32 1016.85 1016.34 1015.80 1015.38 1015.07 1014.84 1014.92 1015.05 1015.06 1014.83 1012.81 1010.95 1010.86 1010.75 1010.83 1010.66 1010.76 1010.87 1010.86 1010.70 1010.68 1010.70 1010.76 1011.13 1011.32 1010.98 1010.81 1009.99 1009.55 1009.19 1008.58 1008.80 1007.60 1007.84 1008.04 1007.64 1007.04 1006.60 1006.36 1005.58 1005.16
1018.63 1018.09 1017.56 1016.97 1016.43 1015.89 1015.38 1014.91 1014.36 1014.01 1014.29 1014.85 1014.93 1014.29 1011.71 1010.60 1010.53 1010.14 1010.26 1010.29 1010.29 1010.57 1010.69 1010.72 1010.84 1011.06 1011.27 1011.04 1011.07 1011.04 1010.43 1010.37 1009.73 1009.56 1009.00 1009.25 1008.56 1008.11 1008.47 1008.16 1007.45 1006.88 1006.68 1005.79 1005.28
1018.33 1017.76 1017.18 1016.62 1016.11 1015.62 1015.03 1014.43 1014.30 1014.07 1014.49 1014.57 1014.32 1013.99 1011.48 1010.80 1010.33 1010.04 1009.99 1010.21 1010.20 1010.40 1010.53 1010.76 1010.93 1011.01 1011.23 1010.93 1010.51 1010.79 1010.71 1010.60 1010.15 1009.83 1009.28 1008.96 1008.76 1008.55 1008.20 1008.14 1007.69 1006.96 1006.55 1006.32 1005.60
1017.95 1017.30 1016.76 1016.21 1015.74 1015.45 1014.97 1014.44 1014.49 1014.20 1013.95 1013.13 1012.82 1012.26 1011.35 1010.80 1010.41 1009.99 1009.76 1009.98 1010.15 1010.30 1010.40 1010.91 1010.76 1010.54 1010.73 1010.98 1011.06 1011.05 1010.88 1010.64 1010.49 1010.15 1009.75 1008.80 1008.41 1008.02 1007.66 1007.24 1006.81 1006.62 1006.41 1006.33 1005.92
1017.69 1017.00 1016.31 1015.76 1015.31 1015.13 1015.09 1014.10 1013.94 1013.98 1013.18 1012.23 1012.01 1011.79 1011.34 1011.04 1010.50 1009.83 1009.83 1009.92 1010.05 1010.27 1010.81 1010.99 1010.50 1010.53 1010.90 1011.02 1011.11 1011.09 1010.94 1010.81 1010.77 1010.59 1010.27 1008.87 1007.86 1007.48 1007.03 1006.44 1005.93 1005.72 1005.82 1005.80 1005.69
1017.28 1016.58 1015.84 1015.28 1014.92 1014.67 1014.44 1013.93 1013.75 1013.66 1013.04 1011.69 1011.16 1010.80 1010.65 1010.80 1010.31 1009.79 1009.76 1009.77 1009.92 1010.24 1010.59 1010.52 1010.46 1010.63 1010.76 1010.81 1010.82 1010.80 1010.78 1010.79 1010.88 1010.73 1010.15 1009.40 1007.31 1006.79 1006.10 1006.10 1005.86 1005.57 1005.49 1005.46 1005.54
1016.82 1016.11 1015.43 1014.94 1014.92 1014.69 1014.06 1013.80 1013.64 1013.48 1012.42 1011.39 1010.59 1010.10 1010.34 1010.31 1009.96 1009.45 1009.46 1009.58 1009.98 1010.17 1010.56 1010.58 1010.62 1010.52 1010.55 1010.51 1010.61 1010.34 1010.54 1010.70 1010.72 1010.56 1009.90 1009.98 1007.71 1006.79 1006.26 1005.79 1005.55 1005.31 1005.19 1005.08 1005.07
1016.44 1015.78 1015.29 1015.05 1014.80 1014.43 1014.12 1013.73 1013.41 1013.29 1012.07 1010.86 1009.82 1009.24 1009.67 1009.96 1009.82 1009.46 1009.48 1009.58 1009.65 1010.12 1010.69 1010.30 1010.28 1010.28 1010.25 1010.13 1010.41 1010.38 1010.71 1010.76 1010.76 1010.53 1010.43 1009.34 1008.73 1006.24 1006.12 1005.47 1005.15 1005.07 1004.90 1004.84 1004.81
1016.11 1015.47 1015.28 1015.26 1015.04 1014.11 1013.97 1013.59 1013.29 1012.94 1011.49 1010.56 1009.86 1009.57 1009.68 1009.73 1009.59 1009.51 1009.62 1009.78 1010.02 1010.25 1010.45 1010.23 1010.39 1010.29 1010.10 1010.25 1010.51 1010.90 1010.94 1010.93 1011.19 1010.90 1009.93 1009.19 1008.62 1004.79 1004.92 1004.73 1004.88 1004.59 1004.53 1004.53 1004.56
1015.67 1015.21 1015.11 1015.05 1014.66 1014.16 1013.80 1013.37 1013.07 1012.26 1011.74 1011.06 1010.40 1010.25 1010.25 1010.09 1009.89 1009.96 1010.07 1010.21 1010.33 1010.44 1010.39 1010.32 1010.12 1010.16 1010.24 1010.28 1010.77 1010.94 1011.11 1010.42 1010.23 1010.14 1009.38 1009.41 1008.32 1004.99 1004.92 1004.70 1004.47 1004.26 1004.10 1004.18 1004.66
1015.29 1014.98 1015.03 1014.70 1014.43 1014.27 1013.63 1013.35 1012.68 1012.23 1011.81 1011.42 1010.95 1010.70 1010.62 1010.63 1010.66 1010.66 1010.58 1010.55 1010.70 1010.73 1010.63 1010.35 1010.16 1010.08 1010.15 1010.08 1010.23 1010.75 1011.20 1011.14 1010.43 1009.97 1009.21 1009.14 1006.58 1004.30 1004.81 1004.78 1004.46 1004.44 1004.18 1004.33 1004.40
1014.92 1014.84 1014.73 1014.52 1014.43 1014.30 1013.78 1013.22 1012.59 1012.43 1012.20 1011.79 1011.28 1011.03 1011.05 1011.23 1011.35 1011.20 1011.03 1010.86 1010.67 1010.81 1010.81 1010.70 1010.54 1010.37 1010.34 1010.41 1010.69 1011.10 1011.22 1011.61 1011.26 1010.94 1010.09 1007.58 1005.79 1004.82 1004.16 1004.00 1003.83 1003.76 1003.99 1003.97 1004.23
1015.49 1014.92 1014.41 1014.33 1014.30 1014.26 1013.95 1013.43 1013.03 1012.60 1012.34 1012.13 1011.73 1011.47 1011.35 1011.53 1011.77 1011.73 1011.41 1011.14 1011.01 1011.12 1011.36 1011.36 1011.15 1010.74 1010.32 1010.55 1010.46 1010.60 1011.04 1011.76 1012.01 1011.04 1009.17 1006.63 1005.39 1003.92 1003.83 1003.57 1003.53 1003.45 1003.47 1003.78 1004.15
1015.56 1014.98 1014.31 1014.13 1014.14 1014.24 1014.35 1014.04 1013.37 1012.77 1012.56 1012.33 1011.89 1011.73 1011.70 1011.79 1011.98 1011.98 1011.65 1011.49 1011.36 1011.54 1011.88 1011.95 1012.03 1011.18 1011.12 1010.29 1009.99 1010.87 1011.05 1011.72 1012.15 1011.80 1010.18 1007.58 1004.32 1004.04 1003.90 1003.91 1003.85 1003.73 1003.70 1003.88 1003.86
1016.03 1015.19 1014.50 1013.96 1014.41 1015.42 1014.99 1014.77 1014.07 1013.05 1012.73 1012.54 1012.37 1012.11 1012.09 1012.16 1012.17 1012.14 1011.82 1011.67 1011.78 1011.82 1011.98 1012.29 1012.22 1011.35 1010.63 1010.08 1010.29 1010.48 1010.89 1011.34 1011.54 1011.24 1010.45 1009.00 1004.22 1004.04 1004.01 1004.11 1004.44 1004.25 1004.15 1003.99 1003.87
1017.20 1016.38 1014.90 1014.37 1015.14 1015.67 1015.51 1015.02 1014.43 1013.51 1013.10 1012.92 1012.70 1012.64 1012.67 1012.64 1012.70 1012.24 1012.09 1012.07 1012.16 1012.25 1012.27 1012.53 1012.37 1011.60 1010.25 1010.63 1010.58 1010.49 1010.83 1011.13 1011.26 1011.63 1010.30 1009.20 1004.59 1003.92 1003.86 1004.08 1004.29 1003.95 1003.70 1003.61 1003.43
1018.03 1017.16 1016.42 1016.30 1017.01 1016.78 1016.59 1015.60 1014.80 1014.02 1013.60 1013.60 1013.31 1013.25 1013.22 1013.11 1013.10 1012.64 1012.55 1012.51 1012.62 1012.65 1012.77 1013.02 1012.44 1012.05 1010.94 1010.06 1010.66 1010.74 1010.51 1010.70 1011.02 1010.63 1009.05 1007.42 1004.19 1004.09 1004.11 1003.91 1003.55 1003.67 1003.78 1003.39 1003.09
1019.18 1019.46 1019.41 1018.14 1017.61 1017.76 1017.62 1016.66 1015.61 1014.98 1014.56 1014.32 1013.90 1014.23 1014.27 1013.83 1013.52 1013.22 1013.08 1012.88 1012.63 1012.56 1012.68 1012.67 1012.17 1011.98 1011.36 1010.83 1010.58 1010.24 1009.75 1009.40 1009.36 1008.77 1008.44 1005.47 1004.85 1003.47 1003.76 1003.51 1003.35 1003.45 1003.46 1003.30 1003.00
1020.09 1020.02 1019.91 1019.18 1018.70 1018.22 1017.60 1016.82 1016.40 1016.00 1015.90 1014.99 1014.83 1014.92 1014.86 1014.50 1014.06 1013.42 1013.15 1013.06 1012.71 1012.50 1012.55 1012.60 1012.29 1011.86 1011.15 1010.68 1010.09 1009.27 1008.50 1007.81 1007.47 1007.06 1006.41 1005.27 1003.86 1003.96 1003.55 1003.50 1003.42 1003.39 1003.07 1003.11 1002.58
1020.88 1020.85 1020.34 1019.37 1018.85 1018.37 1017.59 1017.20 1016.95 1016.96 1016.03 1015.70 1015.54 1015.19 1014.56 1014.08 1013.76 1013.30 1013.31 1013.17 1012.96 1012.82 1012.69 1012.60 1012.48 1012.26 1010.50 1009.89 1009.43 1008.00 1006.24 1005.90 1005.68 1005.63 1005.21 1004.33 1003.48 1003.50 1003.40 1003.51 1003.42 1003.16 1002.87 1002.45 1002.01
Thickness
5583 5583 5585 5586 5588 5589 5592 5595 5598 5601 5605 5609 5613 5616 5620 5624 5630 5636 5645 5658 5659 5663 5665 5669 5672 5673 5675 5675 5677 5683 5670 5676 5686 5691 5705 5720 5717 5733 5744 5740 5748 5756 5759 5772 5788
5578 5579 5581 5583 5585 5587 5589 5592 5595 5598 5601 5604 5608 5611 5615 5620 5628 5637 5654 5654 5654 5657 5659 5659 5658 5664 5662 5665 5667 5666 5669 5676 5690 5702 5708 5718 5717 5719 5723 5731 5737 5747 5759 5771 5782
5572 5575 5578 5581 5583 5586 5589 5591 5593 5595 5598 5600 5603 5606 5610 5614 5625 5645 5650 5649 5650 5651 5652 5653 5654 5656 5654 5655 5656 5659 5660 5671 5683 5696 5699 5710 5706 5712 5710 5717 5732 5733 5747 5763 5773
5569 5572 5575 5578 5581 5585 5588 5590 5591 5593 5594 5596 5599 5602 5605 5609 5623 5641 5644 5644 5644 5645 5647 5646 5646 5645 5644 5644 5647 5648 5653 5657 5677 5686 5687 5692 5695 5696 5700 5713 5726 5734 5740 5752 5761
5569 5570 5573 5576 5580 5583 5586 5589 5591 5591 5591 5592 5594 5596 5601 5609 5623 5635 5636 5637 5637 5638 5638 5639 5638 5637 5637 5638 5640 5642 5644 5651 5661 5673 5678 5681 5686 5691 5694 5706 5721 5728 5735 5743 5753
5572 5572 5572 5574 5578 5582 5585 5587 5590 5590 5590 5590 5590 5592 5596 5606 5627 5627 5628 5628 5630 5630 5630 5632 5633 5635 5632 5632 5632 5636 5637 5642 5651 5663 5669 5668 5682 5674 5695 5701 5707 5716 5726 5739 5746
5575 5574 5574 5574 5578 5581 5584 5586 5589 5589 5590 5588 5587 5588 5592 5610 5622 5620 5620 5623 5625 5625 5625 5627 5630 5628 5627 5623 5627 5628 5628 5635 5643 5651 5655 5661 5666 5668 5680 5681 5690 5700 5716 5727 5737
5579 5578 5577 5578 5580 5582 5585 5586 5588 5590 5589 5587 5586 5586 5599 5615 5616 5617 5617 5618 5619 5620 5620 5624 5625 5622 5621 5620 5615 5617 5619 5624 5637 5642 5652 5651 5654 5664 5664 5670 5681 5689 5697 5712 5727
5582 5582 5581 5581 5582 5583 5585 5587 5589 5592 5589 5584 5583 5586 5602 5614 5612 5617 5616 5612 5615 5614 5614 5616 5614 5608 5609 5608 5607 5609 5610 5612 5622 5631 5640 5637 5637 5655 5658 5660 5669 5680 5687 5703 5714
5586 5585 5585 5585 5584 5585 5586 5588 5587 5587 5583 5581 5583 5585 5603 5602 5608 5611 5613 5610 5607 5606 5604 5602 5599 5599 5597 5601 5598 5598 5601 5604 5609 5621 5629 5630 5632 5645 5653 5654 5660 5672 5679 5689 5703
5589 5589 5588 5588 5588 5586 5587 5589 5590 5587 5582 5591 5592 5591 5595 5602 5606 5605 5609 5604 5602 5598 5591 5590 5592 5589 5593 5594 5594 5594 5595 5597 5604 5614 5616 5626 5629 5640 5651 5655 5662 5668 5673 5676 5688
5591 5591 5592 5592 5590 5588 5585 5594 5587 5584 5583 5589 5587 5587 5591 5593 5590 5600 5604 5595 5592 5584 5583 5583 5584 5591 5589 5588 5586 5586 5586 5588 5594 5601 5602 5619 5627 5637 5645 5653 5663 5668 5671 5673 5678
5594 5594 5595 5595 5593 5591 5590 5589 5584 5580 5577 5585 5588 5586 5588 5588 5585 5590 5596 5591 5586 5580 5579 5578 5584 5585 5583 5582 5581 5583 5582 5581 5582 5588 5596 5600 5623 5630 5645 5646 5651 5659 5664 5669 5670
5597 5598 5598 5598 5596 5590 5593 5586 5582 5579 5579 5582 5584 5586 5584 5584 5580 5593 5593 5589 5580 5577 5574 5575 5578 5579 5578 5576 5580 5577 5585 5582 5581 5582 5584 5590 5599 5621 5630 5635 5639 5646 5652 5658 5664
5599 5599 5598 5595 5595 5595 5590 5585 5582 5579 5568 5584 5584 5595 5587 5580 5580 5583 5587 5582 5575 5572 5571 5572 5573 5573 5572 5576 5576 5576 5576 5576 5577 5577 5573 5591 5582 5618 5619 5622 5629 5634 5641 5648 5655
5600 5600 5596 5592 5589 5592 5587 5585 5583 5574 5565 5578 5583 5578 5576 5577 5576 5578 5576 5578 5573 5566 5565 5569 5570 5570 5571 5569 5569 5565 5565 5566 5559 5562 5569 5575 5575 5625 5616 5614 5614 5625 5629 5633 5639
5601 5600 5595 5590 5593 5588 5587 5587 5578 5573 5579 5572 5571 5573 5567 5566 5568 5566 5562 5559 5558 5552 5554 5559 5562 5564 5564 5560 5557 5556 5553 5555 5561 5563 5568 5564 5567 5608 5603 5605 5605 5609 5616 5620 5619
5602 5599 5593 5589 5587 5584 5587 5583 5572 5573 5569 5573 5569 5567 5561 5561 5558 5556 5554 5552 5551 5549 5545 5548 5550 5557 5558 5557 5554 5550 5547 5541 5536 5549 5564 5562 5571 5602 5597 5594 5594 5591 5597 5598 5600
5602 5598 5593 5588 5583 5581 5582 5575 5574 5569 5568 5564 5566 5559 5555 5553 5549 5547 5544 5543 5546 5544 5541 5537 5538 5549 5548 5547 5546 5537 5537 5540 5537 5540 5534 5567 5584 5594 5597 5592 5589 5586 5585 5583 5583
5594 5595 5593 5585 5581 5578 5577 5568 5568 5570 5565 5561 5554 5557 5549 5546 5540 5536 5536 5539 5537 5537 5534 5530 5525 5537 5542 5541 5543 5540 5542 5527 5524 5522 5537 5570 5572 5581 5583 5581 5581 5580 5578 5576 5572
5591 5595 5590 5584 5579 5576 5568 5562 5563 5567 5562 5556 5554 5551 5548 5542 5536 5530 5530 5530 5530 5526 5522 5519 5514 5528 5527 5534 5538 5529 5527 5522 5518 5518 5523 5540 5576 5578 5572 5568 5566 5567 5567 5561 5564
5581 5589 5584 5582 5577 5547 5560 5553 5553 5559 5557 5552 5548 5546 5541 5536 5529 5525 5523 5521 5522 5519 5513 5513 5511 5518 5527 5537 5535 5531 5525 5523 5514 5518 5522 5526 5563 5575 5565 5560 5550 5550 5551 5550 5550
5565 5566 5576 5576 5567 5558 5551 5550 5549 5551 5549 5544 5540 5537 5532 5527 5519 5520 5517 5515 5511 5509 5506 5504 5505 5509 5527 5523 5522 5522 5520 5519 5518 5503 5510 5509 5553 5565 5561 5552 5546 5545 5545 5542 5538
5558 5572 5566 5556 5538 5540 5533 5542 5542 5545 5541 5532 5530 5525 5520 5515 5511 5510 5506 5504 5500 5499 5497 5494 5501 5504 5515 5526 5516 5511 5518 5516 5506 5493 5519 5525 5551 5554 5546 5543 5544 5539 5533 5533 5530
5539 5531 5521 5548 5541 5522 5516 5522 5530 5530 5527 5520 5519 5506 5496 5498 5496 5493 5494 5492 5494 5494 5491 5490 5494 5501 5508 5512 5511 5510 5516 5520 5514 5517 5500 5537 5535 5549 5538 5536 5534 5529 5526 5523 5523
5534 5530 5516 5520 5513 5514 5515 5523 5518 5517 5506 5511 5502 5485 5477 5474 5478 5477 5482 5483 5485 5489 5487 5485 5478 5495 5500 5507 5507 5509 5520 5524 5524 5525 5523 5528 5532 5535 5533 5528 5523 5517 5516 5513 5517
5515 5509 5511 5516 5514 5516 5522 5515 5508 5496 5503 5494 5483 5474 5471 5472 5473 5474 5471 5473 5477 5478 5480 5481 5481 5478 5501 5510 5505 5515 5537 5537 5534 5531 5529 5525 5535 5531 5524 5513 5505 5500 5500 5505 5510